OPS 4682 DEB, 38429

Orbit data source: Space-Track

OPS 4682 DEB, 38429 is space debris in LEO originally from a launch on Sat, 03 Apr 1965 UTC launched from the Air Force Western Test Range (AFWTR). Debris objects in space refer to the collection of defunct objects orbiting the Earth. Examples of debris include non-operational satellites, rocket bodies, and fragments generated from explosions, collisions, or faulty payload assembly.

Loading next visibility...
Identifier
38429, 1965-027EJ
Orbit
LEO
Country
Flag of USUS
Related business
Manufacturer
Unknown
Mission
Spacecraft
Bus & Motor
Unknown
Mass
Unknown
Launch date (UTC)
1965-04-03 (61 years ago)
Launch vehicle
Unknown
Launch site
Air Force Western Test Range (AFWTR)
Object type
Payload
Rocket body
Debris
Shape & HBR
Unknown shape, 0.1 m
Radar Cross Section
Medium (>0.1 m² and <1 m²)

Expand to show TLE details & history
Last TLE update: 4 days ago

TLE from 4 days ago
0 OPS 4682 DEB
1 38429U 65027EJ  26260.04302309  .00000863  00000-0  29128-2 0  9994
2 38429  90.2404   2.7181 0043962 151.3337 209.0214 12.98016347601335
Epoch: 2026-09-17T01:01Z
TLE epoch observation values (Epoch: 2026-09-17T01:01:57.194Z)
Latitude
-0.00006°
Longitude
-8.75614°
Altitude
1,302.19 km
Speed
7.192 km/s
True Right ascension
00h 10m 52s
True Declination
0° 00' 00"
Sunlit
Object was in full shadow at epoch
Visualization orbit readout
Latitude
Unknown
Longitude
Unknown
Altitude
Unknown
Speed
Unknown
Apparent Right ascension
Unknown
Apparent Declination
Unknown
Sunlit
N/A
Visualization observer readout
Local Sidereal Time
20:50:34
Azimuth
Unknown
Elevation
Unknown
Doppler factor
Unknown
Orbital elements
Apogee altitude
1,300.608 km
Perigee altitude
1,233.389 km
Semi-major axis
7,645.135 km
Eccentricity
0.0044
Inclination
90.2404°
RAAN
2.7181°
Arg. of periapsis
151.3337°
True anomaly
208.77817°
Mean anomaly
209.0214°
Eccentric anomaly
208.89967°
Mean motion
3.24687 °/min
Orbital period
110.88 mins
BSTAR
0.0029128
Loading maneuver chart data...
Computing Atmospheric mass density...
Loading historical data...
Loading historical data...
Loading historical data...
Loading historical data...
Loading historical data...
Loading historical data...
Loading historical data...

Documentation

Showing up to 5 results
|